| time (UTC) | temp F | wind direction | speed MPH | gust MPH | rain 1hr in | rain 24hr in | rain mn in | humidity % | barometer mb |
| 20260905080930 | 89 | 238 | 0.0 | 0.0 | 0.00 | 0.00 | 0.00 | 34 | 1010.3 |
| 20260905080429 | 89 | 238 | 0.0 | 0.0 | 0.00 | 0.00 | 0.00 | 34 | 1010.3 |
| 20260905075930 | 90 | 236 | 0.0 | 0.0 | 0.00 | 0.00 | 0.00 | 34 | 1010.3 |
| 20260905075429 | 90 | 236 | 0.0 | 0.0 | 0.00 | 0.00 | 0.00 | 34 | 1010.3 |
| 20260905075154 | 90 | 242 | 0.0 | 0.0 | 0.00 | 0.00 | 0.00 | 34 | 1010.3 |
| 20260905074430 | 90 | 215 | 0.0 | 0.0 | 0.00 | 0.00 | 0.00 | 33 | 1010.3 |
| 20260905073930 | 90 | 215 | 0.0 | 0.0 | 0.00 | 0.00 | 0.00 | 33 | 1010.3 |
| 20260905073429 | 90 | 215 | 0.0 | 0.0 | 0.00 | 0.00 | 0.00 | 33 | 1010.2 |
| 20260905072929 | 90 | 196 | 0.0 | 0.0 | 0.00 | 0.00 | 0.00 | 33 | 1010.2 |
| 20260905072428 | 90 | 188 | 0.0 | 0.0 | 0.00 | 0.00 | 0.00 | 33 | 1010.2 |
| 20260905071929 | 90 | 188 | 0.0 | 0.0 | 0.00 | 0.00 | 0.00 | 32 | 1010.2 |
| 20260905071429 | 91 | 188 | 0.0 | 0.0 | 0.00 | 0.00 | 0.00 | 32 | 1010.2 |
| 20260905070930 | 91 | 188 | 0.0 | 0.0 | 0.00 | 0.00 | 0.00 | 32 | 1010.2 |
| 20260905070427 | 91 | 157 | 0.0 | 0.0 | 0.00 | 0.00 | 0.00 | 32 | 1010.2 |
| 20260905070144 | 91 | 65 | 0.0 | 0.0 | 0.00 | 0.00 | 0.00 | 32 | 1010.2 |
| 20260905065650 | 91 | 226 | 0.0 | 0.0 | 0.00 | 0.00 | 0.00 | 31 | 1010.2 |
| 20260905064928 | 91 | 226 | 0.0 | 0.0 | 0.00 | 0.00 | 0.00 | 31 | 1010.2 |
| 20260905064425 | 91 | 226 | 0.0 | 0.0 | 0.00 | 0.00 | 0.00 | 31 | 1010.2 |
| 20260905063923 | 91 | 226 | 0.0 | 0.0 | 0.00 | 0.00 | 0.00 | 31 | 1010.1 |
| 20260905063423 | 91 | 226 | 0.0 | 0.0 | 0.00 | 0.00 | 0.00 | 31 | 1010.0 |
| 20260905062923 | 91 | 226 | 0.0 | 0.0 | 0.00 | 0.00 | 0.00 | 31 | 1010.0 |
| 20260905062423 | 91 | 226 | 0.0 | 0.0 | 0.00 | 0.00 | 0.00 | 30 | 1009.9 |
| 20260905061924 | 91 | 226 | 0.0 | 0.0 | 0.00 | 0.00 | 0.00 | 30 | 1009.9 |
| 20260905061422 | 92 | 226 | 0.0 | 0.0 | 0.00 | 0.00 | 0.00 | 30 | 1009.9 |
| 20260905060922 | 92 | 226 | 0.0 | 0.0 | 0.00 | 0.00 | 0.00 | 30 | 1009.8 |
| 20260905060422 | 92 | 225 | 0.0 | 0.0 | 0.00 | 0.00 | 0.00 | 30 | 1009.8 |
| 20260905055922 | 92 | 225 | 0.0 | 0.0 | 0.00 | 0.00 | 0.00 | 30 | 1009.9 |
| 20260905055420 | 92 | 225 | 0.0 | 0.0 | 0.00 | 0.00 | 0.00 | 30 | 1009.9 |
| 20260905054918 | 92 | 225 | 0.0 | 0.0 | 0.00 | 0.00 | 0.00 | 30 | 1009.8 |
| 20260905054416 | 92 | 225 | 0.0 | 0.0 | 0.00 | 0.00 | 0.00 | 30 | 1009.8 |
| 20260905053916 | 93 | 225 | 0.0 | 0.0 | 0.00 | 0.00 | 0.00 | 29 | 1009.8 |
| 20260905053417 | 93 | 225 | 0.0 | 0.0 | 0.00 | 0.00 | 0.00 | 29 | 1009.8 |
| 20260905052917 | 93 | 225 | 0.0 | 0.0 | 0.00 | 0.00 | 0.00 | 29 | 1009.7 |
| 20260905052637 | 93 | 225 | 0.0 | 0.0 | 0.00 | 0.00 | 0.00 | 29 | 1009.6 |
| 20260905052142 | 93 | 224 | 0.0 | 0.0 | 0.00 | 0.00 | 0.00 | 29 | 1009.6 |
| 20260905051416 | 93 | 224 | 0.0 | 0.0 | 0.00 | 0.00 | 0.00 | 29 | 1009.6 |
| 20260905050913 | 93 | 224 | 0.0 | 0.0 | 0.00 | 0.00 | 0.00 | 29 | 1009.6 |
| 20260905050413 | 93 | 223 | 0.0 | 0.0 | 0.00 | 0.00 | 0.00 | 29 | 1009.5 |
| 20260905045914 | 93 | 213 | 0.0 | 0.0 | 0.00 | 0.00 | 0.00 | 29 | 1009.5 |
| 20260905045412 | 94 | 221 | 0.0 | 0.0 | 0.00 | 0.00 | 0.00 | 29 | 1009.5 |
| 20260905045139 | 94 | 222 | 0.0 | 0.0 | 0.00 | 0.00 | 0.00 | 29 | 1009.4 |
| 20260905044412 | 94 | 221 | 0.0 | 0.0 | 0.00 | 0.00 | 0.00 | 28 | 1009.5 |
| 20260905043913 | 94 | 220 | 0.0 | 0.0 | 0.00 | 0.00 | 0.00 | 28 | 1009.4 |
| 20260905043412 | 94 | 234 | 0.0 | 0.0 | 0.00 | 0.00 | 0.00 | 28 | 1009.4 |
| 20260905042914 | 94 | 223 | 0.0 | 1.0 | 0.00 | 0.00 | 0.00 | 28 | 1009.4 |
| 20260905042409 | 95 | 237 | 0.0 | 1.0 | 0.00 | 0.00 | 0.00 | 29 | 1009.3 |
| 20260905041909 | 95 | 225 | 0.0 | 1.0 | 0.00 | 0.00 | 0.00 | 29 | 1009.3 |
| 20260905041628 | 95 | 228 | 0.0 | 0.0 | 0.00 | 0.00 | 0.00 | 29 | 1009.2 |
| 20260905040909 | 95 | 226 | 0.0 | 0.0 | 0.00 | 0.00 | 0.00 | 29 | 1009.2 |
| 20260905040408 | 95 | 209 | 0.0 | 2.0 | 0.00 | 0.00 | 0.00 | 29 | 1009.2 |
| 20260905035906 | 95 | 219 | 0.0 | 2.0 | 0.00 | 0.00 | 0.00 | 29 | 1009.1 |
| 20260905035406 | 95 | 234 | 0.0 | 1.0 | 0.00 | 0.00 | 0.00 | 29 | 1009.0 |
| 20260905034905 | 95 | 223 | 0.0 | 1.0 | 0.00 | 0.00 | 0.00 | 29 | 1009.0 |
| 20260905034402 | 95 | 204 | 0.0 | 4.0 | 0.00 | 0.00 | 0.00 | 29 | 1009.0 |
| 20260905033901 | 96 | 225 | 0.0 | 6.0 | 0.00 | 0.00 | 0.00 | 29 | 1008.9 |
| 20260905033402 | 96 | 229 | 0.0 | 6.0 | 0.00 | 0.00 | 0.00 | 29 | 1008.9 |
| 20260905032901 | 96 | 227 | 0.0 | 5.0 | 0.00 | 0.00 | 0.00 | 28 | 1008.8 |
| 20260905032402 | 96 | 198 | 0.0 | 5.0 | 0.00 | 0.00 | 0.00 | 28 | 1008.8 |
| 20260905031901 | 96 | 234 | 0.0 | 3.0 | 0.00 | 0.00 | 0.00 | 28 | 1008.7 |
| 20260905031359 | 96 | 222 | 0.0 | 4.0 | 0.00 | 0.00 | 0.00 | 27 | 1008.6 |
| 20260905030854 | 96 | 215 | 0.0 | 4.0 | 0.00 | 0.00 | 0.00 | 27 | 1008.5 |
| 20260905030346 | 96 | 215 | 0.0 | 2.0 | 0.00 | 0.00 | 0.00 | 27 | 1008.5 |
| 20260905025841 | 97 | 229 | 0.0 | 2.0 | 0.00 | 0.00 | 0.00 | 26 | 1008.4 |
| 20260905025334 | 97 | 200 | 0.0 | 4.0 | 0.00 | 0.00 | 0.00 | 26 | 1008.3 |
| 20260905024832 | 97 | 231 | 0.0 | 4.0 | 0.00 | 0.00 | 0.00 | 26 | 1008.3 |
| 20260905024332 | 97 | 230 | 0.0 | 1.0 | 0.00 | 0.00 | 0.00 | 26 | 1008.3 |
| 20260905023830 | 97 | 233 | 0.0 | 2.0 | 0.00 | 0.00 | 0.00 | 25 | 1008.2 |
| 20260905023330 | 97 | 233 | 0.0 | 12.0 | 0.00 | 0.00 | 0.00 | 25 | 1008.1 |
| 20260905023049 | 98 | 229 | 0.0 | 12.0 | 0.00 | 0.00 | 0.00 | 25 | 1008.0 |
| 20260905022330 | 98 | 229 | 0.0 | 4.0 | 0.00 | 0.00 | 0.00 | 24 | 1008.0 |
| 20260905021830 | 98 | 229 | 0.0 | 5.0 | 0.00 | 0.00 | 0.00 | 24 | 1008.0 |
| 20260905021330 | 98 | 225 | 0.0 | 7.0 | 0.00 | 0.00 | 0.00 | 24 | 1008.0 |
| 20260905021102 | 98 | 221 | 0.0 | 7.0 | 0.00 | 0.00 | 0.00 | 24 | 1007.7 |
| 20260905020330 | 98 | 224 | 0.0 | 6.0 | 0.00 | 0.00 | 0.00 | 23 | 1007.7 |
| 20260905015831 | 99 | 227 | 1.0 | 6.0 | 0.00 | 0.00 | 0.00 | 23 | 1007.7 |
| 20260905015331 | 99 | 196 | 1.0 | 7.0 | 0.00 | 0.00 | 0.00 | 23 | 1007.6 |
| 20260905014830 | 99 | 227 | 0.0 | 7.0 | 0.00 | 0.00 | 0.00 | 23 | 1007.6 |
| 20260905014330 | 99 | 213 | 0.0 | 4.0 | 0.00 | 0.00 | 0.00 | 24 | 1007.5 |
| 20260905014056 | 99 | 215 | 0.0 | 4.0 | 0.00 | 0.00 | 0.00 | 24 | 1007.5 |
| 20260905013330 | 99 | 209 | 0.0 | 4.0 | 0.00 | 0.00 | 0.00 | 24 | 1007.5 |
| 20260905012829 | 100 | 207 | 0.0 | 3.0 | 0.00 | 0.00 | 0.00 | 25 | 1007.5 |
| 20260905012328 | 100 | 182 | 0.0 | 6.0 | 0.00 | 0.00 | 0.00 | 27 | 1007.5 |
| 20260905011822 | 100 | 193 | 0.0 | 6.0 | 0.00 | 0.00 | 0.00 | 25 | 1007.4 |
| 20260905011317 | 101 | 214 | 0.0 | 7.0 | 0.00 | 0.00 | 0.00 | 24 | 1007.4 |
| 20260905011030 | 101 | 232 | 0.0 | 7.0 | 0.00 | 0.00 | 0.00 | 24 | 1007.4 |
| 20260905010308 | 101 | 209 | 0.0 | 2.0 | 0.00 | 0.00 | 0.00 | 23 | 1007.4 |
| 20260905005809 | 101 | 155 | 0.0 | 5.0 | 0.00 | 0.00 | 0.00 | 24 | 1007.4 |
| 20260905005308 | 101 | 211 | 1.0 | 10.0 | 0.00 | 0.00 | 0.00 | 23 | 1007.4 |
| 20260905004808 | 101 | 216 | 1.0 | 10.0 | 0.00 | 0.00 | 0.00 | 23 | 1007.4 |
| 20260905004308 | 101 | 201 | 0.0 | 1.0 | 0.00 | 0.00 | 0.00 | 23 | 1007.4 |
| 20260905003808 | 101 | 204 | 0.0 | 1.0 | 0.00 | 0.00 | 0.00 | 24 | 1007.4 |
| 20260905003308 | 101 | 211 | 0.0 | 0.0 | 0.00 | 0.00 | 0.00 | 25 | 1007.5 |
| 20260905003033 | 101 | 159 | 0.0 | 0.0 | 0.00 | 0.00 | 0.00 | 26 | 1007.5 |
| 20260905002533 | 100 | 157 | 0.0 | 1.0 | 0.00 | 0.00 | 0.00 | 27 | 1007.5 |
| 20260905001804 | 100 | 185 | 0.0 | 1.0 | 0.00 | 0.00 | 0.00 | 27 | 1007.5 |
| 20260905001302 | 101 | 201 | 0.0 | 2.0 | 0.00 | 0.00 | 0.00 | 26 | 1007.5 |
| 20260905000801 | 101 | 201 | 0.0 | 2.0 | 0.00 | 0.00 | 0.00 | 26 | 1007.5 |
| 20260905000531 | 101 | 219 | 0.0 | 2.0 | 0.00 | 0.00 | 0.00 | 26 | 1007.6 |
| 20260905000020 | 101 | 238 | 0.0 | 2.0 | 0.00 | 0.00 | 0.00 | 26 | 1007.6 |
| 20260904235305 | 101 | 248 | 0.0 | 0.0 | 0.00 | 0.00 | 0.00 | 27 | 1007.6 |
| 20260904234801 | 100 | 200 | 0.0 | 0.0 | 0.00 | 0.00 | 0.00 | 27 | 1007.7 |
| 20260904234302 | 100 | 196 | 0.0 | 6.0 | 0.00 | 0.00 | 0.00 | 28 | 1007.7 |
| 20260904233801 | 100 | 241 | 0.0 | 6.0 | 0.00 | 0.00 | 0.00 | 28 | 1007.8 |
| 20260904233742 | 100 | 202 | 0.0 | 1.0 | 0.00 | 0.00 | 0.00 | 28 | 1007.8 |
| 20260904232752 | 99 | 265 | 0.0 | 0.0 | 0.00 | 0.00 | 0.00 | 29 | 1007.8 |
| 20260904232251 | 99 | 265 | 0.0 | 0.0 | 0.00 | 0.00 | 0.00 | 29 | 1007.8 |
| 20260904232011 | 99 | 264 | 0.0 | 0.0 | 0.00 | 0.00 | 0.00 | 29 | 1008.0 |
| 20260904231248 | 100 | 5 | 0.0 | 1.0 | 0.00 | 0.00 | 0.00 | 29 | 1008.0 |
| 20260904230746 | 100 | 71 | 0.0 | 1.0 | 0.00 | 0.00 | 0.00 | 29 | 1008.1 |
| 20260904230243 | 100 | 215 | 0.0 | 1.0 | 0.00 | 0.00 | 0.00 | 29 | 1008.1 |
| 20260904225742 | 99 | 215 | 0.0 | 1.0 | 0.00 | 0.00 | 0.00 | 29 | 1008.2 |
| 20260904225241 | 99 | 236 | 0.0 | 0.0 | 0.00 | 0.00 | 0.00 | 30 | 1008.2 |
| 20260904224740 | 99 | 236 | 0.0 | 1.0 | 0.00 | 0.00 | 0.00 | 30 | 1008.3 |
| 20260904224238 | 99 | 228 | 0.0 | 1.0 | 0.00 | 0.00 | 0.00 | 29 | 1008.3 |
| 20260904223737 | 100 | 145 | 0.0 | 2.0 | 0.00 | 0.00 | 0.00 | 29 | 1008.3 |
| 20260904223237 | 100 | 163 | 0.0 | 2.0 | 0.00 | 0.00 | 0.00 | 29 | 1008.3 |
| 20260904222738 | 101 | 278 | 0.0 | 0.0 | 0.00 | 0.00 | 0.00 | 29 | 1008.4 |
| 20260904222238 | 100 | 216 | 0.0 | 0.0 | 0.00 | 0.00 | 0.00 | 30 | 1008.5 |
| 20260904221736 | 100 | 193 | 0.0 | 5.0 | 0.00 | 0.00 | 0.00 | 30 | 1008.5 |
| 20260904221236 | 99 | 269 | 0.0 | 5.0 | 0.00 | 0.00 | 0.00 | 31 | 1008.5 |
| 20260904220957 | 99 | 217 | 0.0 | 8.0 | 0.00 | 0.00 | 0.00 | 30 | 1008.7 |
| 20260904220232 | 100 | 165 | 0.0 | 8.0 | 0.00 | 0.00 | 0.00 | 30 | 1008.7 |
| 20260904215732 | 100 | 145 | 0.0 | 1.0 | 0.00 | 0.00 | 0.00 | 30 | 1008.8 |
| 20260904215452 | 99 | 269 | 0.0 | 1.0 | 0.00 | 0.00 | 0.00 | 31 | 1008.9 |
| 20260904214730 | 99 | 228 | 0.0 | 1.0 | 0.00 | 0.00 | 0.00 | 30 | 1009.0 |
| 20260904214230 | 100 | 229 | 0.0 | 1.0 | 0.00 | 0.00 | 0.00 | 29 | 1009.0 |
| 20260904213951 | 100 | 223 | 0.0 | 3.0 | 0.00 | 0.00 | 0.00 | 29 | 1009.0 |
| 20260904213229 | 101 | 178 | 0.0 | 3.0 | 0.00 | 0.00 | 0.00 | 29 | 1009.1 |
| 20260904212729 | 101 | 232 | 0.0 | 2.0 | 0.00 | 0.00 | 0.00 | 29 | 1009.1 |
| 20260904212229 | 101 | 153 | 0.0 | 2.0 | 0.00 | 0.00 | 0.00 | 29 | 1009.2 |
| 20260904211729 | 101 | 222 | 0.0 | 3.0 | 0.00 | 0.00 | 0.00 | 30 | 1009.2 |
| 20260904211228 | 101 | 211 | 1.0 | 8.0 | 0.00 | 0.00 | 0.00 | 30 | 1009.3 |
| 20260904211219 | 101 | 212 | 1.0 | 8.0 | 0.00 | 0.00 | 0.00 | 29 | 1009.3 |
| 20260904210230 | 101 | 247 | 0.0 | 1.0 | 0.00 | 0.00 | 0.00 | 30 | 1009.4 |
| 20260904205730 | 100 | 168 | 0.0 | 2.0 | 0.00 | 0.00 | 0.00 | 30 | 1009.5 |
| 20260904205228 | 100 | 227 | 0.0 | 5.0 | 0.00 | 0.00 | 0.00 | 31 | 1009.5 |
| 20260904204729 | 100 | 160 | 1.0 | 5.0 | 0.00 | 0.00 | 0.00 | 30 | 1009.6 |
| 20260904204229 | 100 | 190 | 0.0 | 5.0 | 0.00 | 0.00 | 0.00 | 31 | 1009.6 |
| 20260904203729 | 100 | 180 | 0.0 | 4.0 | 0.00 | 0.00 | 0.00 | 33 | 1009.7 |
| 20260904203228 | 99 | 213 | 0.0 | 7.0 | 0.00 | 0.00 | 0.00 | 33 | 1009.7 |
| 20260904202955 | 99 | 161 | 0.0 | 7.0 | 0.00 | 0.00 | 0.00 | 33 | 1009.7 |
| 20260904202231 | 98 | 192 | 0.0 | 0.0 | 0.00 | 0.00 | 0.00 | 34 | 1009.9 |
| 20260904201729 | 98 | 163 | 0.0 | 8.0 | 0.00 | 0.00 | 0.00 | 35 | 1009.9 |
| 20260904201448 | 97 | 150 | 1.0 | 8.0 | 0.00 | 0.00 | 0.00 | 35 | 1010.1 |
| 20260904200729 | 97 | 157 | 1.0 | 9.0 | 0.00 | 0.00 | 0.00 | 36 | 1010.2 |
| 20260904200447 | 97 | 232 | 0.0 | 9.0 | 0.00 | 0.00 | 0.00 | 36 | 1010.2 |
| 20260904195728 | 97 | 128 | 1.0 | 7.0 | 0.00 | 0.00 | 0.00 | 35 | 1010.3 |
| 20260904195229 | 97 | 141 | 1.0 | 9.0 | 0.00 | 0.00 | 0.00 | 35 | 1010.3 |
| 20260904194728 | 98 | 164 | 0.0 | 9.0 | 0.00 | 0.00 | 0.00 | 35 | 1010.4 |
| 20260904194450 | 97 | 208 | 0.0 | 4.0 | 0.00 | 0.00 | 0.00 | 36 | 1010.4 |
| 20260904193729 | 97 | 197 | 1.0 | 8.0 | 0.00 | 0.00 | 0.00 | 36 | 1010.4 |
| 20260904193228 | 96 | 148 | 1.0 | 8.0 | 0.00 | 0.00 | 0.00 | 37 | 1010.7 |
| 20260904192730 | 97 | 156 | 1.0 | 8.0 | 0.00 | 0.00 | 0.00 | 36 | 1010.7 |
| 20260904192229 | 97 | 155 | 0.0 | 6.0 | 0.00 | 0.00 | 0.00 | 36 | 1010.7 |
| 20260904191729 | 97 | 176 | 1.0 | 10.0 | 0.00 | 0.00 | 0.00 | 36 | 1010.9 |
| 20260904191229 | 97 | 196 | 1.0 | 10.0 | 0.00 | 0.00 | 0.00 | 36 | 1010.9 |
| 20260904190729 | 97 | 165 | 0.0 | 10.0 | 0.00 | 0.00 | 0.00 | 36 | 1010.9 |
| 20260904190229 | 96 | 172 | 1.0 | 11.0 | 0.00 | 0.00 | 0.00 | 38 | 1011.0 |
| 20260904185729 | 96 | 171 | 1.0 | 11.0 | 0.00 | 0.00 | 0.00 | 39 | 1011.1 |
| 20260904185452 | 96 | 111 | 0.0 | 6.0 | 0.00 | 0.00 | 0.00 | 38 | 1011.1 |
| 20260904184729 | 96 | 154 | 1.0 | 12.0 | 0.00 | 0.00 | 0.00 | 38 | 1011.2 |
| 20260904184229 | 96 | 196 | 1.0 | 12.0 | 0.00 | 0.00 | 0.00 | 38 | 1011.3 |
| 20260904183950 | 96 | 138 | 0.0 | 10.0 | 0.00 | 0.00 | 0.00 | 39 | 1011.4 |
| 20260904183230 | 95 | 84 | 0.0 | 10.0 | 0.00 | 0.00 | 0.00 | 39 | 1011.5 |
| 20260904182958 | 94 | 212 | 0.0 | 1.0 | 0.00 | 0.00 | 0.00 | 41 | 1011.5 |
| 20260904182229 | 94 | 260 | 0.0 | 6.0 | 0.00 | 0.00 | 0.00 | 42 | 1011.6 |
| 20260904181950 | 94 | 88 | 0.0 | 6.0 | 0.00 | 0.00 | 0.00 | 41 | 1011.7 |
| 20260904181230 | 94 | 144 | 0.0 | 6.0 | 0.00 | 0.00 | 0.00 | 42 | 1011.8 |
| 20260904180729 | 93 | 134 | 1.0 | 12.0 | 0.00 | 0.00 | 0.00 | 43 | 1011.8 |
| 20260904180229 | 93 | 159 | 1.0 | 12.0 | 0.00 | 0.00 | 0.00 | 44 | 1011.8 |
| 20260904175730 | 93 | 164 | 1.0 | 9.0 | 0.00 | 0.00 | 0.00 | 43 | 1011.9 |
| 20260904175229 | 92 | 161 | 0.0 | 5.0 | 0.00 | 0.00 | 0.00 | 44 | 1011.9 |
| 20260904174729 | 93 | 116 | 1.0 | 10.0 | 0.00 | 0.00 | 0.00 | 44 | 1012.0 |
| 20260904174228 | 93 | 161 | 1.0 | 10.0 | 0.00 | 0.00 | 0.00 | 43 | 1012.0 |
| 20260904173729 | 92 | 193 | 1.0 | 6.0 | 0.00 | 0.00 | 0.00 | 45 | 1011.9 |
| 20260904173450 | 92 | 140 | 1.0 | 7.0 | 0.00 | 0.00 | 0.00 | 45 | 1011.9 |
| 20260904172728 | 92 | 150 | 1.0 | 11.0 | 0.00 | 0.00 | 0.00 | 46 | 1012.0 |
| 20260904172229 | 92 | 142 | 2.0 | 11.0 | 0.00 | 0.00 | 0.00 | 46 | 1011.9 |
| 20260904171953 | 91 | 161 | 2.0 | 10.0 | 0.00 | 0.00 | 0.00 | 47 | 1011.9 |
| 20260904171228 | 91 | 135 | 2.0 | 15.0 | 0.00 | 0.00 | 0.00 | 47 | 1012.0 |
| 20260904170729 | 91 | 162 | 2.0 | 15.0 | 0.00 | 0.00 | 0.00 | 47 | 1011.9 |
| 20260904170229 | 91 | 150 | 1.0 | 8.0 | 0.00 | 0.00 | 0.00 | 48 | 1011.8 |
| 20260904165729 | 91 | 148 | 1.0 | 11.0 | 0.00 | 0.00 | 0.00 | 48 | 1011.9 |
| 20260904165229 | 91 | 144 | 1.0 | 11.0 | 0.00 | 0.00 | 0.00 | 48 | 1011.8 |
| 20260904164729 | 91 | 173 | 1.0 | 10.0 | 0.00 | 0.00 | 0.00 | 49 | 1011.8 |
| 20260904164453 | 91 | 187 | 1.0 | 11.0 | 0.00 | 0.00 | 0.00 | 49 | 1011.7 |
| 20260904163728 | 91 | 134 | 1.0 | 11.0 | 0.00 | 0.00 | 0.00 | 50 | 1011.7 |
| 20260904163229 | 90 | 153 | 1.0 | 9.0 | 0.00 | 0.00 | 0.00 | 51 | 1011.6 |
| 20260904162723 | 90 | 115 | 2.0 | 11.0 | 0.00 | 0.00 | 0.00 | 51 | 1011.6 |
| 20260904162216 | 89 | 168 | 2.0 | 13.0 | 0.00 | 0.00 | 0.00 | 51 | 1011.7 |
| 20260904161710 | 89 | 178 | 2.0 | 13.0 | 0.00 | 0.00 | 0.00 | 51 | 1011.6 |
| 20260904161211 | 89 | 155 | 2.0 | 13.0 | 0.00 | 0.00 | 0.00 | 52 | 1011.5 |
| 20260904160711 | 89 | 149 | 4.0 | 13.0 | 0.00 | 0.00 | 0.00 | 53 | 1011.6 |
| 20260904160211 | 89 | 134 | 6.0 | 14.0 | 0.00 | 0.00 | 0.00 | 53 | 1011.5 |
| 20260904155937 | 88 | 140 | 5.0 | 14.0 | 0.00 | 0.00 | 0.00 | 53 | 1011.5 |
| 20260904155211 | 89 | 130 | 2.0 | 11.0 | 0.00 | 0.00 | 0.00 | 53 | 1011.5 |
| 20260904154709 | 88 | 169 | 3.0 | 16.0 | 0.00 | 0.00 | 0.00 | 54 | 1011.4 |
| 20260904154209 | 88 | 140 | 4.0 | 16.0 | 0.00 | 0.00 | 0.00 | 54 | 1011.4 |
| 20260904153709 | 87 | 151 | 5.0 | 17.0 | 0.00 | 0.00 | 0.00 | 55 | 1011.4 |
| 20260904153209 | 87 | 154 | 4.0 | 17.0 | 0.00 | 0.00 | 0.00 | 55 | 1011.4 |
| 20260904152708 | 87 | 146 | 2.0 | 13.0 | 0.00 | 0.00 | 0.00 | 56 | 1011.5 |
| 20260904152209 | 87 | 154 | 2.0 | 13.0 | 0.00 | 0.00 | 0.00 | 57 | 1011.4 |
| 20260904151709 | 87 | 146 | 3.0 | 13.0 | 0.00 | 0.00 | 0.00 | 57 | 1011.5 |
| 20260904151209 | 87 | 123 | 4.0 | 13.0 | 0.00 | 0.00 | 0.00 | 58 | 1011.5 |
| 20260904150709 | 86 | 130 | 4.0 | 13.0 | 0.00 | 0.00 | 0.00 | 58 | 1011.4 |
| 20260904150439 | 86 | 142 | 4.0 | 13.0 | 0.00 | 0.00 | 0.00 | 58 | 1011.4 |
| 20260904145708 | 86 | 113 | 3.0 | 13.0 | 0.00 | 0.00 | 0.00 | 58 | 1011.4 |
| 20260904145201 | 86 | 135 | 3.0 | 11.0 | 0.00 | 0.00 | 0.00 | 58 | 1011.4 |
| 20260904144701 | 86 | 146 | 2.0 | 10.0 | 0.00 | 0.00 | 0.00 | 58 | 1011.3 |
| 20260904144201 | 85 | 146 | 3.0 | 19.0 | 0.00 | 0.00 | 0.00 | 59 | 1011.3 |
| 20260904143702 | 85 | 133 | 4.0 | 19.0 | 0.00 | 0.00 | 0.00 | 59 | 1011.2 |
| 20260904143202 | 85 | 114 | 3.0 | 12.0 | 0.00 | 0.00 | 0.00 | 58 | 1011.2 |
| 20260904142701 | 85 | 159 | 1.0 | 12.0 | 0.00 | 0.00 | 0.00 | 58 | 1011.2 |
| 20260904142201 | 85 | 126 | 1.0 | 7.0 | 0.00 | 0.00 | 0.00 | 59 | 1011.1 |
| 20260904141701 | 85 | 117 | 2.0 | 14.0 | 0.00 | 0.00 | 0.00 | 59 | 1011.1 |
| 20260904141420 | 85 | 112 | 2.0 | 14.0 | 0.00 | 0.00 | 0.00 | 59 | 1011.0 |
| 20260904140700 | 85 | 154 | 1.0 | 15.0 | 0.00 | 0.00 | 0.00 | 59 | 1011.0 |
| 20260904140201 | 84 | 138 | 1.0 | 15.0 | 0.00 | 0.00 | 0.00 | 59 | 1010.9 |
| 20260904135701 | 84 | 134 | 1.0 | 9.0 | 0.00 | 0.00 | 0.00 | 59 | 1010.9 |
| 20260904135201 | 84 | 137 | 1.0 | 9.0 | 0.00 | 0.00 | 0.00 | 59 | 1010.8 |
| 20260904134700 | 84 | 130 | 0.0 | 7.0 | 0.00 | 0.00 | 0.00 | 59 | 1010.8 |
| 20260904134423 | 84 | 101 | 1.0 | 8.0 | 0.00 | 0.00 | 0.00 | 59 | 1010.7 |
| 20260904133700 | 84 | 159 | 1.0 | 8.0 | 0.00 | 0.00 | 0.00 | 59 | 1010.6 |
| 20260904133201 | 84 | 130 | 0.0 | 8.0 | 0.00 | 0.00 | 0.00 | 59 | 1010.4 |
| 20260904132702 | 84 | 143 | 0.0 | 8.0 | 0.00 | 0.00 | 0.00 | 59 | 1010.4 |
| 20260904132201 | 84 | 159 | 0.0 | 5.0 | 0.00 | 0.00 | 0.00 | 59 | 1010.3 |
| 20260904131922 | 84 | 153 | 0.0 | 5.0 | 0.00 | 0.00 | 0.00 | 59 | 1010.2 |
| 20260904131411 | 84 | 188 | 0.0 | 1.0 | 0.00 | 0.00 | 0.00 | 59 | 1010.1 |
| 20260904131353 | 84 | 179 | 0.0 | 1.0 | 0.00 | 0.00 | 0.00 | 59 | 1010.1 |
| 20260904130201 | 84 | 169 | 0.0 | 2.0 | 0.00 | 0.00 | 0.00 | 59 | 1009.9 |
| 20260904125700 | 84 | 163 | 0.0 | 2.0 | 0.00 | 0.00 | 0.00 | 59 | 1009.9 |
| 20260904125201 | 84 | 103 | 0.0 | 1.0 | 0.00 | 0.00 | 0.00 | 59 | 1009.8 |
| 20260904124701 | 84 | 144 | 0.0 | 6.0 | 0.00 | 0.00 | 0.00 | 59 | 1009.7 |
| 20260904124422 | 84 | 157 | 0.0 | 6.0 | 0.00 | 0.00 | 0.00 | 58 | 1009.7 |
| 20260904124147 | 84 | 152 | 0.0 | 5.0 | 0.00 | 0.00 | 0.00 | 58 | 1009.6 |
| 20260904123200 | 85 | 172 | 0.0 | 0.0 | 0.00 | 0.00 | 0.00 | 58 | 1009.6 |
| 20260904122701 | 85 | 211 | 0.0 | 1.0 | 0.00 | 0.00 | 0.00 | 58 | 1009.6 |
| 20260904122201 | 85 | 279 | 0.0 | 1.0 | 0.00 | 0.00 | 0.00 | 58 | 1009.5 |
| 20260904121701 | 85 | 204 | 0.0 | 1.0 | 0.00 | 0.00 | 0.00 | 57 | 1009.4 |
| 20260904121200 | 85 | 165 | 0.0 | 0.0 | 0.00 | 0.00 | 0.00 | 57 | 1009.4 |
| 20260904120701 | 85 | 139 | 0.0 | 0.0 | 0.00 | 0.00 | 0.00 | 57 | 1009.4 |
| 20260904120201 | 85 | 130 | 0.0 | 0.0 | 0.00 | 0.00 | 0.00 | 56 | 1009.4 |
| 20260904115702 | 85 | 157 | 0.0 | 0.0 | 0.00 | 0.00 | 0.00 | 56 | 1009.5 |
| 20260904115201 | 85 | 175 | 0.0 | 0.0 | 0.00 | 0.00 | 0.00 | 56 | 1009.4 |
| 20260904114701 | 85 | 180 | 0.0 | 0.0 | 0.00 | 0.00 | 0.00 | 55 | 1009.4 |
| 20260904114200 | 85 | 292 | 0.0 | 0.0 | 0.00 | 0.00 | 0.00 | 55 | 1009.4 |
| 20260904113702 | 85 | 292 | 0.0 | 0.0 | 0.00 | 0.00 | 0.00 | 54 | 1009.4 |
| 20260904113201 | 85 | 292 | 0.0 | 0.0 | 0.00 | 0.00 | 0.00 | 54 | 1009.4 |
| 20260904112701 | 85 | 292 | 0.0 | 0.0 | 0.00 | 0.00 | 0.00 | 54 | 1009.4 |
| 20260904112201 | 86 | 292 | 0.0 | 0.0 | 0.00 | 0.00 | 0.00 | 54 | 1009.4 |
| 20260904111702 | 86 | 78 | 0.0 | 0.0 | 0.00 | 0.00 | 0.00 | 54 | 1009.4 |
| 20260904111201 | 86 | 78 | 0.0 | 0.0 | 0.00 | 0.00 | 0.00 | 54 | 1009.4 |
| 20260904110701 | 86 | 78 | 0.0 | 0.0 | 0.00 | 0.00 | 0.00 | 54 | 1009.4 |
| 20260904110201 | 86 | 78 | 0.0 | 0.0 | 0.00 | 0.00 | 0.00 | 53 | 1009.4 |
| 20260904105701 | 86 | 78 | 0.0 | 0.0 | 0.00 | 0.00 | 0.00 | 53 | 1009.4 |
| 20260904105201 | 86 | 310 | 0.0 | 0.0 | 0.00 | 0.00 | 0.00 | 53 | 1009.3 |
| 20260904104701 | 86 | 11 | 0.0 | 0.0 | 0.00 | 0.00 | 0.00 | 53 | 1009.2 |
| 20260904104201 | 86 | 342 | 0.0 | 0.0 | 0.00 | 0.00 | 0.00 | 53 | 1009.2 |
| 20260904103702 | 86 | 265 | 0.0 | 0.0 | 0.00 | 0.00 | 0.00 | 53 | 1009.2 |
| 20260904103420 | 86 | 190 | 0.0 | 0.0 | 0.00 | 0.00 | 0.00 | 53 | 1009.2 |
| 20260904102924 | 86 | 148 | 0.0 | 0.0 | 0.00 | 0.00 | 0.00 | 53 | 1009.2 |
| 20260904102201 | 86 | 224 | 0.0 | 0.0 | 0.00 | 0.00 | 0.00 | 53 | 1009.1 |
| 20260904101702 | 86 | 190 | 0.0 | 0.0 | 0.00 | 0.00 | 0.00 | 53 | 1009.0 |
| 20260904101422 | 86 | 151 | 0.0 | 0.0 | 0.00 | 0.00 | 0.00 | 53 | 1009.0 |
| 20260904100701 | 87 | 161 | 0.0 | 5.0 | 0.00 | 0.00 | 0.00 | 52 | 1008.9 |
| 20260904100655 | 87 | 175 | 0.0 | 5.0 | 0.00 | 0.00 | 0.00 | 52 | 1008.9 |
| 20260904095703 | 87 | 140 | 0.0 | 0.0 | 0.00 | 0.00 | 0.00 | 51 | 1008.9 |
| 20260904095201 | 87 | 134 | 0.0 | 0.0 | 0.00 | 0.00 | 0.00 | 50 | 1008.9 |
| 20260904094924 | 87 | 131 | 0.0 | 0.0 | 0.00 | 0.00 | 0.00 | 51 | 1008.9 |
| 20260904094201 | 87 | 131 | 0.0 | 0.0 | 0.00 | 0.00 | 0.00 | 51 | 1008.9 |
| 20260904093701 | 87 | 131 | 0.0 | 0.0 | 0.00 | 0.00 | 0.00 | 51 | 1008.9 |
| 20260904093422 | 86 | 132 | 0.0 | 0.0 | 0.00 | 0.00 | 0.00 | 52 | 1008.9 |
| 20260904092702 | 86 | 163 | 0.0 | 0.0 | 0.00 | 0.00 | 0.00 | 52 | 1008.8 |
| 20260904092433 | 86 | 193 | 0.0 | 0.0 | 0.00 | 0.00 | 0.00 | 52 | 1008.8 |
| 20260904091701 | 86 | 193 | 0.0 | 0.0 | 0.00 | 0.00 | 0.00 | 52 | 1008.8 |
| 20260904091201 | 86 | 193 | 0.0 | 0.0 | 0.00 | 0.00 | 0.00 | 51 | 1008.8 |
| 20260904090701 | 87 | 193 | 0.0 | 0.0 | 0.00 | 0.00 | 0.00 | 51 | 1008.9 |
| 20260904090200 | 87 | 193 | 0.0 | 0.0 | 0.00 | 0.00 | 0.00 | 51 | 1008.8 |
| 20260904085702 | 87 | 193 | 0.0 | 0.0 | 0.00 | 0.00 | 0.00 | 50 | 1008.8 |
| 20260904085202 | 87 | 193 | 0.0 | 0.0 | 0.00 | 0.00 | 0.00 | 50 | 1008.7 |
| 20260904084701 | 87 | 193 | 0.0 | 0.0 | 0.00 | 0.00 | 0.00 | 49 | 1008.8 |
| 20260904084201 | 87 | 193 | 0.0 | 0.0 | 0.00 | 0.00 | 0.00 | 49 | 1008.8 |
| 20260904083702 | 88 | 193 | 0.0 | 0.0 | 0.00 | 0.00 | 0.00 | 48 | 1008.9 |
| 20260904083201 | 88 | 193 | 0.0 | 0.0 | 0.00 | 0.00 | 0.00 | 48 | 1009.0 |
| 20260904082701 | 88 | 193 | 0.0 | 0.0 | 0.00 | 0.00 | 0.00 | 48 | 1008.9 |
| 20260904082423 | 88 | 193 | 0.0 | 0.0 | 0.00 | 0.00 | 0.00 | 46 | 1008.9 |
| 20260904082149 | 88 | 193 | 0.0 | 0.0 | 0.00 | 0.00 | 0.00 | 46 | 1008.9 |